Hauptseite
METAR-TAF:

METAR-TAF

Flughäfen :

Cuneo, Italien

Flughafen Cuneo

Breite: 44-32-47N, Länge: 007-37-20E, Höhe: 386 m

Beobachtung

Neuester Wetterbericht von vor 1 Stunde und 0 Minuten, um 10:50 UTC
Wind 3 kt aus Ost/Nordost
Temperatur 8°C
Luftfeuchtigkeit 57%
Luftdruck 1021 hPa
Sichtweite 10 km oder mehr
keine Wolken unter 1500 m und keine Kumulonimbus oder Gewitterwolken

METAR: LIMZ 231050Z 06003KT CAVOK 08/00 Q1021

Zeit: 12:50 (11:50 UTC)

Prognose

Neuester Wetterbericht von vor 50 Minuten, um 11:00 UTC
Gültige Prognose vom 23 um 12 UTC bis 24 um 12 UTC
Wind 5 kt aus unterschiedlichen Richtungen
Sichtweite 10 km oder mehr
keine Wolken unter 1500 m und keine Kumulonimbus oder Gewitterwolken

TAF: LIMZ 231100Z 2312/2412 VRB05KT CAVOK

Wetterbeobachtungen und Prognosen von mehr als 4000 Flughäfen (METAR und TAF Bericht).

Die verfügbaren Stationen werden durch gelbe und rote Markierungen auf der Karte dargestellt.

Führen Sie die Maus auf sie, um den Namen der Station zu sehen.

Darauf klicken, um die Beobachtung von Wetterbeobachtungen und Prognosen zu sehen.

Um die Karte zu ändern : klicken Sie auf den grünen Tasten mit einem schwarzen Kreuz Zum Vergrößern, auf den grünen Button mit einem Gedankenstrich zu verkleinern, oder auf die grünen Pfeile für benachbarte Karten.


METAR-TAF: